Hobart, OK

5:50 PM CDT on August 24, 2016 (GMT -0500)
Hobart Municipal

Weather History for KHBR - January, 2013

Change the Weather History Date:

Thursday, January 31, 2013

  Actual Average Record
Temperature  
Mean Temperature 44 °F -  
Max Temperature 64 °F 48 °F 69 °F (2006)
Min Temperature 25 °F 28 °F 19 °F (2011)
Degree Days  
Heating Degree Days 20    
Moisture  
Dew Point 21 °F    
Average Humidity 53    
Maximum Humidity 75    
Minimum Humidity 21    
Precipitation  
Precipitation 0.00 in - - ()
Sea Level Pressure  
Sea Level Pressure 30.17 in    
Wind  
Wind Speed 10 mph (North)    
Max Wind Speed 26 mph    
Max Gust Speed 36 mph    
Visibility 10 miles    
Events      
Averages and records for this station are not official NWS values.
T = Trace of Precipitation, MM = Missing Value Source: NWS Daily Summary

Daily Weather History Graph

Daily Weather History Graph

Search for Another Location

Airport or City:

Trip Planner

Search our weather history database for the weather conditions in past years. The results will help you decide how hot, cold, wet, or windy it might be!

Date:

Astronomy

Jan. 31, 2013 Rise Set
Actual Time 7:35 AM CST 6:04 PM CST
Civil Twilight 7:08 AM CST 6:30 PM CST
Nautical Twilight 6:38 AM CST 7:01 PM CST
Astronomical Twilight 6:08 AM CST 7:31 PM CST
Moon 10:53 PM CST (1/31) 9:49 AM CST (1/31)
Length of Visible Light 11h 22m
Length of Day
10h 28m
Waning Gibbous, 79% of the Moon is Illuminated
Jan 31
Waning Gibbous
Feb 3
Last Quarter
Feb 10
New
Feb 17
First Quarter
Feb 25
Full

Hourly Weather History & Observations

Time (CST) Temp. Windchill Dew Point Humidity Pressure Visibility Wind Dir Wind Speed Gust Speed Precip Events Conditions
12:53 AM 28.9 °F 21.9 °F 16.0 °F 58% 30.09 in 10.0 mi SW 6.9 mph - N/A   Clear
1:53 AM 27.0 °F 21.6 °F 16.0 °F 63% 30.07 in 10.0 mi WNW 4.6 mph - N/A   Clear
2:53 AM 28.9 °F 23.9 °F 15.1 °F 56% 30.06 in 10.0 mi NNW 4.6 mph - N/A   Clear
3:53 AM 28.9 °F - 12.9 °F 51% 30.06 in 10.0 mi Calm Calm - N/A   Clear
4:53 AM 28.9 °F 18.6 °F 17.1 °F 61% 30.06 in 10.0 mi SSW 12.7 mph - N/A   Clear
5:53 AM 27.0 °F 23.0 °F 17.1 °F 66% 30.07 in 10.0 mi Variable 3.5 mph - N/A   Clear
6:53 AM 25.0 °F 18.1 °F 17.1 °F 72% 30.07 in 10.0 mi SSW 5.8 mph - N/A   Clear
7:53 AM 28.0 °F 17.5 °F 18.0 °F 66% 30.08 in 10.0 mi SSW 12.7 mph - N/A   Clear
8:53 AM 33.1 °F 26.1 °F 18.0 °F 54% 30.12 in 10.0 mi WSW 8.1 mph - N/A   Clear
9:53 AM 37.9 °F 32.1 °F 19.0 °F 47% 30.13 in 10.0 mi WNW 8.1 mph - N/A   Clear
10:53 AM 44.1 °F 42.5 °F 19.9 °F 38% 30.12 in 10.0 mi WNW 3.5 mph - N/A   Clear
11:53 AM 51.1 °F - 24.1 °F 35% 30.12 in 10.0 mi West 3.5 mph - N/A   Clear
12:53 PM 57.0 °F - 24.1 °F 28% 30.10 in 10.0 mi West 9.2 mph - N/A   Clear
1:53 PM 61.0 °F - 21.0 °F 21% 30.08 in 10.0 mi NNW 6.9 mph - N/A   Clear
2:53 PM 64.0 °F - 26.1 °F 24% 30.07 in 10.0 mi NE 8.1 mph - N/A   Clear
3:53 PM 59.0 °F - 27.0 °F 29% 30.13 in 10.0 mi ENE 23.0 mph 29.9 mph N/A   Clear
4:53 PM 51.1 °F - 28.9 °F 43% 30.21 in 10.0 mi ENE 26.5 mph 35.7 mph N/A   Clear
5:53 PM 45.0 °F 36.4 °F 27.0 °F 49% 30.28 in 10.0 mi ENE 23.0 mph 27.6 mph N/A   Clear
6:53 PM 39.9 °F 30.8 °F 27.0 °F 60% 30.32 in 10.0 mi ENE 18.4 mph - N/A   Clear
7:53 PM 36.0 °F 24.7 °F 26.1 °F 67% 30.36 in 10.0 mi ENE 21.9 mph 27.6 mph N/A   Clear
8:53 PM 32.0 °F 19.2 °F 24.1 °F 73% 30.38 in 10.0 mi ENE 23.0 mph - N/A   Clear
9:53 PM 28.9 °F 14.5 °F 21.0 °F 72% 30.38 in 10.0 mi ENE 25.3 mph 33.4 mph N/A   Clear
10:53 PM 27.0 °F 12.8 °F 19.9 °F 75% 30.37 in 10.0 mi ENE 21.9 mph 27.6 mph N/A   Clear
11:53 PM 25.0 °F 11.7 °F 18.0 °F 75% 30.38 in 10.0 mi ENE 17.3 mph - N/A   Clear